• In Österreich
  • Länderverzeichnis
  • Für 7 Tage
  • Wassertemperatur
  • Satellitenkarten
  • Wetterkarte
  • News
  • Widgets
  • user-avatar
    Anmelden

    Stündliche Wetter Berat

    Heute, 15 Oktober, Montag

    Zeit Temperatur Niederschläge Wind Luftdruck Luftfeuchtigkeit
    00:00 +16°C° 0 mm 2 m/S 747 mmHg 70%
    01:00 +16°C° 0 mm 2 m/S 747 mmHg 71%
    02:00 +16°C° 0 mm 2 m/S 747 mmHg 72%
    03:00 +16°C° 0 mm 2 m/S 747 mmHg 74%
    04:00 +16°C° 0 mm 2 m/S 747 mmHg 75%
    05:00 +16°C° 0 mm 2 m/S 747 mmHg 74%
    06:00 +16°C° 0 mm 2 m/S 747 mmHg 73%
    07:00 +17°C° 0 mm 3 m/S 747 mmHg 70%
    08:00 +19°C° 0 mm 2 m/S 747 mmHg 64%
    09:00 +21°C° 0 mm 2 m/S 747 mmHg 57%
    10:00 +24°C° 0 mm 2 m/S 747 mmHg 50%
    11:00 +25°C° 0 mm 2 m/S 747 mmHg 47%
    12:00 +26°C° 0 mm 2 m/S 747 mmHg 44%
    13:00 +26°C° 0 mm 2 m/S 747 mmHg 43%
    14:00 +25°C° 0 mm 2 m/S 747 mmHg 46%
    15:00 +25°C° 0 mm 2 m/S 747 mmHg 48%
    16:00 +24°C° 0 mm 2 m/S 747 mmHg 50%
    17:00 +23°C° 0 mm 2 m/S 747 mmHg 56%
    18:00 +21°C° 0 mm 1 m/S 747 mmHg 62%
    19:00 +20°C° 0 mm 1 m/S 747 mmHg 67%
    20:00 +19°C° 0 mm 1 m/S 748 mmHg 68%
    21:00 +19°C° 0 mm 1 m/S 748 mmHg 69%
    22:00 +18°C° 0 mm 1 m/S 748 mmHg 71%
    23:00 +17°C° 0 mm 2 m/S 748 mmHg 71%

    Morgen, 16 Oktober, Dienstag

    Zeit Temperatur Niederschläge Wind Luftdruck Luftfeuchtigkeit
    00:00 +17°C° 0 mm 2 m/S 748 mmHg 72%
    01:00 +16°C° 0 mm 2 m/S 748 mmHg 72%
    02:00 +16°C° 0 mm 2 m/S 748 mmHg 73%
    03:00 +16°C° 0 mm 2 m/S 748 mmHg 73%
    04:00 +16°C° 0 mm 2 m/S 748 mmHg 73%
    05:00 +16°C° 0 mm 2 m/S 748 mmHg 72%
    06:00 +16°C° 0 mm 2 m/S 748 mmHg 71%
    07:00 +17°C° 0 mm 2 m/S 748 mmHg 69%
    08:00 +19°C° 0 mm 2 m/S 748 mmHg 62%
    09:00 +22°C° 0 mm 1 m/S 748 mmHg 54%
    10:00 +25°C° 0 mm 1 m/S 748 mmHg 47%
    11:00 +25°C° 0 mm 1 m/S 748 mmHg 44%
    12:00 +26°C° 0 mm 1 m/S 748 mmHg 42%
    13:00 +27°C° 0 mm 2 m/S 748 mmHg 39%
    14:00 +26°C° 0 mm 2 m/S 748 mmHg 42%
    15:00 +26°C° 0 mm 2 m/S 747 mmHg 44%
    16:00 +25°C° 0 mm 2 m/S 747 mmHg 46%
    17:00 +23°C° 0 mm 1 m/S 747 mmHg 53%
    18:00 +22°C° 0 mm 1 m/S 748 mmHg 59%
    19:00 +20°C° 0 mm 1 m/S 748 mmHg 65%
    20:00 +20°C° 0 mm 1 m/S 748 mmHg 66%
    21:00 +19°C° 0 mm 1 m/S 748 mmHg 66%
    22:00 +19°C° 0 mm 1 m/S 748 mmHg 67%
    23:00 +19°C° 0 mm 1 m/S 748 mmHg 67%

    übermorgen, 17 Oktober, Mittwoch

    Zeit Temperatur Niederschläge Wind Luftdruck Luftfeuchtigkeit
    00:00 +18°C° 0 mm 1 m/S 747 mmHg 67%
    01:00 +18°C° 0 mm 1 m/S 747 mmHg 67%
    02:00 +18°C° 0 mm 1 m/S 747 mmHg 68%
    03:00 +17°C° 0 mm 2 m/S 747 mmHg 69%
    04:00 +16°C° 0 mm 2 m/S 747 mmHg 69%
    05:00 +17°C° 0 mm 2 m/S 747 mmHg 68%
    06:00 +17°C° 0 mm 2 m/S 747 mmHg 67%
    07:00 +18°C° 0 mm 2 m/S 747 mmHg 66%
    08:00 +20°C° 0 mm 2 m/S 747 mmHg 57%
    09:00 +23°C° 0 mm 1 m/S 747 mmHg 48%
    10:00 +26°C° 0 mm 1 m/S 746 mmHg 40%
    11:00 +26°C° 0 mm 1 m/S 746 mmHg 37%
    12:00 +27°C° 0 mm 2 m/S 746 mmHg 35%
    13:00 +28°C° 0 mm 2 m/S 745 mmHg 32%
    14:00 +27°C° 0 mm 2 m/S 745 mmHg 36%
    15:00 +26°C° 0 mm 2 m/S 745 mmHg 39%
    16:00 +26°C° 0 mm 2 m/S 745 mmHg 43%
    17:00 +24°C° 0 mm 2 m/S 745 mmHg 49%
    18:00 +22°C° 0 mm 1 m/S 745 mmHg 54%
    19:00 +20°C° 0 mm 1 m/S 745 mmHg 60%
    20:00 +20°C° 0 mm 1 m/S 745 mmHg 59%
    21:00 +19°C° 0 mm 1 m/S 745 mmHg 59%
    22:00 +19°C° 0 mm 1 m/S 745 mmHg 59%
    23:00 +19°C° 0 mm 1 m/S 745 mmHg 59%

    18 Oktober, Donnerstag

    Zeit Temperatur Niederschläge Wind Luftdruck Luftfeuchtigkeit
    00:00 +17°C° 0 mm 2 m/S 745 mmHg 59%
    01:00 +17°C° 0 mm 2 m/S 745 mmHg 60%
    02:00 +17°C° 0 mm 2 m/S 745 mmHg 60%
    03:00 +17°C° 0 mm 2 m/S 745 mmHg 61%
    04:00 +16°C° 0 mm 2 m/S 744 mmHg 61%
    05:00 +17°C° 0 mm 2 m/S 745 mmHg 61%
    06:00 +17°C° 0 mm 2 m/S 745 mmHg 61%
    07:00 +18°C° 0 mm 2 m/S 745 mmHg 60%
    08:00 +20°C° 0 mm 2 m/S 745 mmHg 53%
    09:00 +23°C° 0 mm 1 m/S 745 mmHg 45%
    10:00 +26°C° 0 mm 1 m/S 744 mmHg 38%
    11:00 +26°C° 0 mm 1 m/S 744 mmHg 36%
    12:00 +27°C° 0 mm 2 m/S 744 mmHg 34%
    13:00 +28°C° 0 mm 2 m/S 744 mmHg 32%
    14:00 +27°C° 0 mm 2 m/S 744 mmHg 35%
    15:00 +26°C° 0 mm 2 m/S 743 mmHg 38%
    16:00 +26°C° 0 mm 2 m/S 743 mmHg 41%
    17:00 +24°C° 0 mm 2 m/S 744 mmHg 46%
    18:00 +22°C° 0 mm 1 m/S 744 mmHg 52%
    19:00 +20°C° 0 mm 1 m/S 744 mmHg 57%
    20:00 +20°C° 0 mm 1 m/S 744 mmHg 58%
    21:00 +20°C° 0 mm 1 m/S 745 mmHg 58%
    22:00 +19°C° 0 mm 1 m/S 745 mmHg 59%
    23:00 +19°C° 0 mm 1 m/S 745 mmHg 60%

    19 Oktober, Freitag

    Zeit Temperatur Niederschläge Wind Luftdruck Luftfeuchtigkeit
    00:00 +18°C° 0 mm 2 m/S 745 mmHg 61%
    01:00 +18°C° 0 mm 2 m/S 745 mmHg 62%
    02:00 +17°C° 0 mm 2 m/S 745 mmHg 63%
    03:00 +17°C° 0 mm 2 m/S 745 mmHg 63%
    04:00 +17°C° 0 mm 2 m/S 744 mmHg 64%
    05:00 +17°C° 0 mm 2 m/S 745 mmHg 63%
    06:00 +18°C° 0 mm 2 m/S 745 mmHg 63%
    07:00 +18°C° 0 mm 2 m/S 745 mmHg 62%
    08:00 +20°C° 0 mm 2 m/S 745 mmHg 54%
    09:00 +24°C° 0 mm 1 m/S 745 mmHg 47%
    10:00 +26°C° 0 mm 1 m/S 745 mmHg 40%
    11:00 +27°C° 0 mm 1 m/S 745 mmHg 37%
    12:00 +28°C° 0 mm 2 m/S 745 mmHg 34%
    13:00 +28°C° 0 mm 2 m/S 744 mmHg 32%
    14:00 +28°C° 0 mm 2 m/S 744 mmHg 35%
    15:00 +27°C° 0 mm 2 m/S 744 mmHg 37%
    16:00 +26°C° 0 mm 2 m/S 744 mmHg 40%
    17:00 +25°C° 0 mm 2 m/S 745 mmHg 44%
    18:00 +23°C° 0 mm 2 m/S 745 mmHg 48%
    19:00 +20°C° 0 mm 2 m/S 745 mmHg 52%
    20:00 +21°C° 0 mm 1 m/S 745 mmHg 53%
    21:00 +20°C° 0 mm 1 m/S 746 mmHg 53%
    22:00 +20°C° 0 mm 1 m/S 746 mmHg 54%
    23:00 +20°C° 0 mm 1 m/S 746 mmHg 54%

    20 Oktober, Samstag

    Zeit Temperatur Niederschläge Wind Luftdruck Luftfeuchtigkeit
    00:00 +19°C° 0 mm 1 m/S 746 mmHg 55%
    01:00 +18°C° 0 mm 2 m/S 746 mmHg 56%
    02:00 +18°C° 0 mm 2 m/S 746 mmHg 57%
    03:00 +18°C° 0 mm 2 m/S 746 mmHg 57%
    04:00 +17°C° 0 mm 2 m/S 746 mmHg 58%
    05:00 +18°C° 0 mm 2 m/S 746 mmHg 58%
    06:00 +18°C° 0 mm 2 m/S 746 mmHg 58%
    07:00 +19°C° 0 mm 2 m/S 746 mmHg 58%
    08:00 +21°C° 0 mm 2 m/S 746 mmHg 51%
    09:00 +24°C° 0 mm 1 m/S 747 mmHg 44%
    10:00 +27°C° 0 mm 1 m/S 747 mmHg 37%
    11:00 +27°C° 0 mm 2 m/S 746 mmHg 35%
    12:00 +28°C° 0 mm 3 m/S 746 mmHg 33%
    13:00 +29°C° 0 mm 3 m/S 746 mmHg 31%
    14:00 +28°C° 0 mm 3 m/S 746 mmHg 34%
    15:00 +27°C° 0 mm 3 m/S 746 mmHg 37%
    16:00 +26°C° 0 mm 3 m/S 745 mmHg 40%
    17:00 +24°C° 0 mm 2 m/S 746 mmHg 44%
    18:00 +21°C° 0 mm 2 m/S 746 mmHg 49%
    19:00 +20°C° 0 mm 2 m/S 746 mmHg 53%
    20:00 +19°C° 0 mm 2 m/S 746 mmHg 54%
    21:00 +19°C° 0 mm 2 m/S 746 mmHg 54%
    22:00 +19°C° 0 mm 2 m/S 747 mmHg 55%
    23:00 +18°C° 0 mm 2 m/S 747 mmHg 56%
    Mehr zeigen